Location: Doussal
(55.6167°N, 116.8333°W)
Time: 04:30:59
(UTC+00:00)

METEOR M2 - Pass Details

Date: 13 December 2023
Orbit: 818 x 826 km, 98.4° (Epoch: 25 February)

Event Time Altitude Azimuth Distance (km) Brightness Sun altitude
Rises 00:11:27 0° 156° (SSE) 3,356 ? -7.2°
Reaches altitude 10° 00:13:47 10° 155° (SSE) 2,427 ? -7.5°
Maximum altitude 00:19:10 77° 71° (ENE) 855 ? -8.2°
Drops below altitude 10° 00:24:34 10° 346° (NNW) 2,439 ? -8.8°
Sets 00:26:55 0° 345° (NNW) 3,376 ? -9.1°
